Weather History for KEKN - September, 2012

Change the Weather History Date:

Monday, September 10, 2012

  Actual Average Record
Temperature  
Mean Temperature 56 °F 64 °F  
Max Temperature 68 °F 76 °F 90 °F (1964)
Min Temperature 44 °F 53 °F 35 °F (1914)
Degree Days  
Heating Degree Days 9 3  
Month to date heating degree days 18 19  
Since 1 July heating degree days 19 49  
Cooling Degree Days 0 2  
Month to date cooling degree days 74 25  
Year to date cooling degree days 663 451  
Growing Degree Days 7 (Base 50)    
Moisture  
Dew Point 47 °F    
Average Humidity 69    
Maximum Humidity 100    
Minimum Humidity 37    
Precipitation  
Precipitation 0.00 in 0.12 in 1.89 in (2000)
Month to date precipitation 2.80 1.21  
Year to date precipitation 34.61 34.02  
Snow  
Snow 0.00 in - - ()
Month to date snowfall 0.0  
Since 1 September snowfall 0.0  
Snow Depth 0.00 in    
Sea Level Pressure  
Sea Level Pressure 30.17 in    
Wind  
Wind Speed 3 mph (NNW)    
Max Wind Speed 13 mph    
Max Gust Speed 20 mph    
Visibility 6 miles    
Events Fog    
T = Trace of Precipitation, MM = Missing Value Source: NWS Daily Summary

Daily Weather History Graph

Daily Weather History Graph

Search for Another Location

Airport or City:

Trip Planner

Search our weather history database for the weather conditions in past years. The results will help you decide how hot, cold, wet, or windy it might be!

Date:

Astronomy

Sep. 10, 2012 Rise Set
Actual Time 6:56 AM EDT 7:34 PM EDT
Civil Twilight 6:29 AM EDT 8:01 PM EDT
Nautical Twilight 5:58 AM EDT 8:33 PM EDT
Astronomical Twilight 5:25 AM EDT 9:05 PM EDT
Moon 1:18 AM EDT (9/10) 4:01 PM EDT (9/10)
Length of Visible Light 13h 31m
Length of Day
12h 38m
Waning Crescent, 30% of the Moon is Illuminated
Sep 10
Waning Crescent
Sep 15
New
Sep 22
First Quarter
Sep 29
Full
Oct 8
Last Quarter

Hourly Weather History & Observations

Time (EDT) Temp. Dew Point Humidity Pressure Visibility Wind Dir Wind Speed Gust Speed Precip Events Conditions
12:51 AM 52.0 °F 51.1 °F 97% 30.09 in 10.0 mi Calm Calm - N/A   Overcast
1:51 AM 54.0 °F 52.0 °F 93% 30.09 in 10.0 mi Calm Calm - N/A   Overcast
2:51 AM 51.1 °F 48.9 °F 92% 30.09 in 9.0 mi Calm Calm - N/A   Partly Cloudy
3:09 AM 50.0 °F 48.2 °F 94% 30.09 in 8.0 mi Calm Calm - N/A   Partly Cloudy
3:38 AM 48.2 °F 48.2 °F 100% 30.10 in 1.8 mi Calm Calm - N/A   Scattered Clouds
3:45 AM 50.0 °F 48.2 °F 94% 30.10 in 2.0 mi Calm Calm - N/A   Mostly Cloudy
3:51 AM 48.9 °F 46.9 °F 93% 30.11 in 5.0 mi Calm Calm - N/A   Mostly Cloudy
4:00 AM 48.2 °F 46.4 °F 93% 30.10 in 1.2 mi Calm Calm - N/A   Overcast
4:08 AM 48.2 °F 48.2 °F 100% 30.11 in 0.5 mi Calm Calm - N/A Fog Fog
4:13 AM 48.2 °F 48.2 °F 100% 30.11 in 2.0 mi Calm Calm - N/A   Overcast
4:23 AM 48.2 °F 48.2 °F 100% 30.11 in 1.0 mi Calm Calm - N/A   Overcast
4:31 AM 48.2 °F 46.4 °F 93% 30.11 in 3.0 mi Calm Calm - N/A   Overcast
4:51 AM 48.0 °F 46.0 °F 93% 30.12 in 4.0 mi Calm Calm - N/A   Overcast
4:57 AM 48.2 °F 46.4 °F 93% 30.11 in 1.5 mi Calm Calm - N/A   Overcast
5:06 AM 50.0 °F 48.2 °F 94% 30.11 in 0.2 mi Calm Calm - N/A Fog Fog
5:51 AM 50.0 °F 48.9 °F 96% 30.13 in 0.2 mi Calm Calm - N/A Fog Fog
6:15 AM 48.2 °F 46.4 °F 93% 30.14 in 0.8 mi Calm Calm - N/A   Overcast
6:22 AM 48.2 °F 46.4 °F 93% 30.14 in 1.0 mi Calm Calm - N/A   Overcast
6:36 AM 48.2 °F 48.2 °F 100% 30.15 in 3.0 mi Calm Calm - N/A   Overcast
6:41 AM 48.2 °F 48.2 °F 100% 30.15 in 1.8 mi Calm Calm - N/A   Overcast
6:51 AM 48.9 °F 48.0 °F 97% 30.17 in 0.8 mi Calm Calm - N/A   Mist
7:13 AM 48.2 °F 48.2 °F 100% 30.17 in 0.2 mi Calm Calm - N/A Fog Fog
7:51 AM 48.9 °F 48.9 °F 100% 30.21 in 0.2 mi Calm Calm - N/A Fog Fog
8:47 AM 50.0 °F 48.2 °F 94% 30.20 in 0.8 mi Calm Calm - N/A   Overcast
8:51 AM 50.0 °F 48.9 °F 96% 30.22 in 1.8 mi Calm Calm - N/A   Overcast
8:57 AM 50.0 °F 48.2 °F 94% 30.20 in 3.0 mi Calm Calm - N/A   Overcast
9:51 AM 54.0 °F 51.1 °F 90% 30.23 in 10.0 mi Calm Calm - N/A   Overcast
10:00 AM 53.6 °F 48.2 °F 82% 30.22 in 10.0 mi Calm Calm - N/A   Overcast
10:16 AM 55.4 °F 50.0 °F 82% 30.22 in 10.0 mi Calm Calm - N/A   Mostly Cloudy
10:36 AM 55.4 °F 48.2 °F 77% 30.22 in 10.0 mi Calm Calm - 0.01 in   Scattered Clouds
10:47 AM 59.0 °F 50.0 °F 72% 30.22 in 10.0 mi Variable 3.5 mph - 0.01 in   Mostly Cloudy
10:51 AM 60.1 °F 50.0 °F 69% 30.23 in 10.0 mi North 5.8 mph - 0.01 in   Scattered Clouds
11:51 AM 63.0 °F 42.1 °F 46% 30.22 in 10.0 mi North 5.8 mph - N/A   Clear
12:51 PM 64.0 °F 39.9 °F 41% 30.22 in 10.0 mi North 11.5 mph 18.4 mph 0.01 in   Clear
1:51 PM 66.0 °F 39.9 °F 38% 30.21 in 10.0 mi NNW 9.2 mph 19.6 mph N/A   Clear
2:51 PM 66.0 °F 41.0 °F 40% 30.20 in 10.0 mi NNW 8.1 mph - N/A   Partly Cloudy
3:51 PM 66.9 °F 42.1 °F 40% 30.19 in 10.0 mi NNE 4.6 mph - N/A   Mostly Cloudy
4:51 PM 64.0 °F 43.0 °F 46% 30.21 in 10.0 mi NW 6.9 mph - 0.01 in   Scattered Clouds
5:51 PM 64.0 °F 42.1 °F 45% 30.21 in 10.0 mi North 4.6 mph - N/A   Overcast
6:51 PM 63.0 °F 43.0 °F 48% 30.22 in 10.0 mi NNW 5.8 mph - N/A   Mostly Cloudy
7:51 PM 54.0 °F 48.0 °F 80% 30.23 in 10.0 mi Calm Calm - N/A   Clear
8:51 PM 51.1 °F 46.9 °F 86% 30.25 in 10.0 mi Calm Calm - N/A   Clear
9:51 PM 48.0 °F 45.0 °F 89% 30.27 in 10.0 mi Calm Calm - N/A   Clear
10:51 PM 46.9 °F 44.1 °F 90% 30.27 in 10.0 mi Calm Calm - N/A   Clear
11:51 PM 46.0 °F 43.0 °F 89% 30.29 in 10.0 mi Calm Calm - N/A   Clear